PJV34V LFMQ-EDDM

Flight info

Callsign PJV34V
Flight time N/A
Altitude 38000
Route NASIK DCT KENIM DCT GAPDO DCT EDVOC DCT CSL DCT OMETO DCT BASGO DCT ARGAX/N0467F370 DCT XASIS DCT ATMAX DCT MAH
Aircraft CL60/M-SBDE1E2E3FGHIJ1J4J5J7M3RWXYZ/LB1V1D1

Departure

Time 2026-04-23 19:12
Airport Le Castellet Airport (LFMQ)

Arrival

Time N/A
Airport Munich Airport (EDDM)
Time Latitude Longitude Altitude Speed Heading
2026-04-23 19:09 43.25198 5.78629 1397 ft 10 kts 122°
2026-04-23 19:10 43.25117 5.78777 1397 ft 28 kts 126°
2026-04-23 19:10 43.24996 5.78997 1397 ft 28 kts 125°
2026-04-23 19:10 43.24882 5.79212 1397 ft 25 kts 127°
2026-04-23 19:10 43.24797 5.79314 1397 ft 11 kts 167°
2026-04-23 19:11 43.24770 5.79359 1397 ft 7 kts 59°
2026-04-23 19:11 43.24814 5.79333 1397 ft 6 kts 307°
2026-04-23 19:11 43.24815 5.79331 1397 ft 1 kts 307°
2026-04-23 19:11 43.25034 5.78928 1397 ft 107 kts 308°
2026-04-23 19:12 43.25420 5.78223 1437 ft 160 kts 309°
2026-04-23 19:12 43.26356 5.76396 2422 ft 187 kts 301°
2026-04-23 19:12 43.26736 5.74646 3063 ft 195 kts 280°
2026-04-23 19:12 43.26908 5.72830 3725 ft 190 kts 279°
2026-04-23 19:13 43.27075 5.71043 4377 ft 192 kts 279°
2026-04-23 19:13 43.27249 5.69213 5026 ft 193 kts 279°
2026-04-23 19:13 43.27431 5.67357 5681 ft 213 kts 279°
2026-04-23 19:13 43.27688 5.65175 6337 ft 249 kts 286°
2026-04-23 19:14 43.28531 5.63039 6993 ft 259 kts 319°
2026-04-23 19:14 43.30059 5.61976 7942 ft 252 kts 351°
2026-04-23 19:14 43.31803 5.61562 8964 ft 260 kts 353°
2026-04-23 19:14 43.33598 5.61371 9967 ft 262 kts
2026-04-23 19:15 43.35307 5.62151 10995 ft 263 kts 34°
2026-04-23 19:15 43.36590 5.63862 12009 ft 267 kts 55°
2026-04-23 19:15 43.37679 5.65987 13022 ft 280 kts 56°
2026-04-23 19:15 43.38821 5.68215 14038 ft 291 kts 55°
2026-04-23 19:16 43.39998 5.70507 15028 ft 301 kts 54°
2026-04-23 19:16 43.41044 5.72988 16092 ft 307 kts 69°
2026-04-23 19:16 43.41432 5.75835 17150 ft 312 kts 85°
2026-04-23 19:17 43.41634 5.81891 19046 ft 324 kts 85°
2026-04-23 19:17 43.41738 5.84992 20028 ft 327 kts 85°
2026-04-23 19:17 43.41843 5.88124 20913 ft 332 kts 85°
2026-04-23 19:17 43.41948 5.91300 21827 ft 335 kts 84°
2026-04-23 19:18 43.42053 5.94473 22676 ft 338 kts 84°
2026-04-23 19:18 43.42160 5.97728 23523 ft 342 kts 84°
2026-04-23 19:18 43.42266 6.00958 24350 ft 345 kts 84°
2026-04-23 19:18 43.42376 6.04304 25018 ft 353 kts 83°
2026-04-23 19:19 43.42595 6.11142 26478 ft 362 kts 83°
2026-04-23 19:19 43.42705 6.14588 27140 ft 367 kts 84°
2026-04-23 19:20 43.42928 6.21697 28392 ft 376 kts 83°
2026-04-23 19:20 43.43247 6.25203 28998 ft 373 kts 71°
2026-04-23 19:20 43.44290 6.28437 29589 ft 369 kts 53°
2026-04-23 19:20 43.45896 6.31168 30108 ft 371 kts 46°
2026-04-23 19:21 43.47622 6.33848 30657 ft 374 kts 46°
2026-04-23 19:21 43.51077 6.39250 31671 ft 379 kts 46°
2026-04-23 19:21 43.52816 6.41974 32133 ft 382 kts 46°
2026-04-23 19:22 43.54592 6.44757 32558 ft 386 kts 46°
2026-04-23 19:22 43.56370 6.47548 32960 ft 389 kts 46°
2026-04-23 19:22 43.60012 6.53269 33723 ft 395 kts 47°
2026-04-23 19:23 43.61832 6.56134 34132 ft 396 kts 47°
2026-04-23 19:23 43.63640 6.58982 34548 ft 396 kts 47°
2026-04-23 19:23 43.65475 6.61876 34950 ft 395 kts 47°
2026-04-23 19:24 43.69112 6.67621 35700 ft 394 kts 48°
2026-04-23 19:24 43.70885 6.70425 36027 ft 394 kts 48°
2026-04-23 19:24 43.74537 6.76210 36820 ft 394 kts 48°
2026-04-23 19:25 43.78207 6.81003 37559 ft 392 kts 34°
2026-04-23 19:25 43.81993 6.84113 38065 ft 393 kts 29°
2026-04-23 19:26 43.86190 6.87371 38137 ft 403 kts 29°
2026-04-23 19:27 43.91833 6.91792 38190 ft 417 kts 29°
2026-04-23 19:27 43.99612 6.97902 38201 ft 434 kts 30°
2026-04-23 19:28 44.10285 7.06313 38220 ft 443 kts 30°
2026-04-23 19:29 44.18328 7.12673 38236 ft 442 kts 30°
2026-04-23 19:30 44.23939 7.16250 38243 ft 442 kts 18°
2026-04-23 19:30 44.26877 7.17546 38242 ft 442 kts 18°
2026-04-23 19:31 44.34861 7.21091 38234 ft 442 kts 18°
2026-04-23 19:31 44.39309 7.23060 38230 ft 442 kts 18°
2026-04-23 19:32 44.45231 7.25703 38219 ft 442 kts 18°
2026-04-23 19:32 44.51149 7.28349 38215 ft 442 kts 19°
2026-04-23 19:33 44.55869 7.30463 38218 ft 442 kts 19°
2026-04-23 19:34 44.60760 7.32823 37559 ft 425 kts 21°
2026-04-23 19:35 44.63678 7.34160 38040 ft 417 kts 18°
2026-04-23 19:35 44.69320 7.36648 38180 ft 427 kts 19°
2026-04-23 19:36 44.75059 7.39199 38208 ft 438 kts 19°
2026-04-23 19:36 44.80917 7.41819 38193 ft 444 kts 19°
2026-04-23 19:37 44.85066 7.43696 38202 ft 444 kts 20°
2026-04-23 19:37 44.90686 7.47390 38184 ft 443 kts 28°
2026-04-23 19:38 44.96195 7.51322 38168 ft 442 kts 28°
2026-04-23 19:38 44.99889 7.53961 38158 ft 442 kts 28°
2026-04-23 19:39 45.06170 7.58462 38162 ft 442 kts 28°